Theta_e
328 330 334 335 330 330 334 333 330 333 333 332 331 328 324 330 330 329 333 331 322 330 330 328 316 317 325 331 331 332 331 327 314 308 307 308 308 309 309 309 309 310 311 312 314 315 315 314 312
327 328 330 334 329 333 330 329 331 330 332 336 335 334 333 334 331 332 331 324 321 331 330 325 313 317 326 330 331 333 332 326 315 309 307 308 308 308 309 309 310 311 314 316 315 314 312 311 312
327 327 329 331 331 332 330 328 327 330 335 337 336 333 332 333 332 331 327 326 324 332 329 317 316 316 323 329 330 334 332 323 317 309 308 308 309 309 309 310 313 315 316 315 313 312 312 313 315
327 327 329 330 333 332 328 327 328 331 334 336 336 330 332 332 331 326 325 326 330 330 324 316 330 325 322 326 329 336 333 328 320 309 308 308 309 310 311 314 316 316 314 313 312 313 314 316 316
327 327 328 331 331 331 328 329 331 331 332 334 333 331 332 330 329 325 326 328 332 328 318 319 333 331 328 328 332 336 333 328 319 308 308 309 310 312 315 316 315 314 313 313 314 315 316 317 317
327 325 327 330 331 330 327 330 331 332 332 334 333 332 332 331 330 328 327 328 333 327 319 322 333 332 329 331 335 334 332 326 313 308 308 311 314 316 316 315 314 314 315 316 316 317 318 320 322
325 325 327 327 330 328 327 331 331 331 331 334 334 332 332 332 331 329 328 328 331 326 323 324 333 333 331 332 334 333 328 319 309 308 310 314 316 316 316 316 316 317 317 319 321 322 324 326 326
327 327 328 327 328 328 326 329 332 331 331 334 334 331 330 332 331 329 331 331 329 327 326 325 333 333 333 332 331 327 321 310 308 309 313 316 316 316 317 317 318 319 321 323 326 327 328 327 326
327 330 331 328 328 327 326 329 331 331 334 334 335 335 333 332 331 331 333 330 329 329 326 323 330 332 332 330 327 323 312 309 310 313 317 317 317 317 318 319 321 323 325 327 328 328 328 328 326
326 329 329 325 324 324 325 327 328 331 333 335 335 335 333 332 332 333 331 330 329 329 324 318 322 328 327 326 323 314 310 310 313 316 318 317 318 319 320 322 325 327 328 329 329 328 328 327 323
326 328 327 326 325 325 326 326 327 330 332 332 335 334 330 331 333 332 331 330 329 327 325 318 318 321 325 321 314 311 311 312 315 319 318 318 319 321 323 325 328 329 329 328 328 327 325 325 323
325 325 326 327 326 326 326 326 325 327 330 330 331 334 329 329 330 331 330 330 328 320 313 315 320 318 313 311 311 313 312 314 319 319 319 319 321 323 326 327 330 328 328 328 327 324 321 321 320
324 324 325 326 325 326 326 326 325 325 327 327 333 333 330 328 328 329 329 329 327 316 311 313 314 316 313 311 314 315 316 317 319 319 320 322 324 327 332 332 330 329 327 326 324 321 318 318 316
321 323 324 325 326 325 326 326 326 325 326 327 331 331 330 326 328 329 330 330 327 317 311 314 320 316 317 319 319 319 322 321 320 321 322 324 326 331 329 329 329 328 325 322 320 317 317 314 312
320 323 323 323 324 325 326 327 326 326 326 331 332 333 326 325 328 328 330 330 328 324 320 320 317 321 322 326 326 323 322 322 324 328 331 332 330 331 329 329 328 325 320 317 316 315 312 311 308
320 323 325 323 323 325 325 327 324 325 327 331 330 327 325 325 327 329 330 329 328 325 322 320 323 324 326 327 326 327 327 328 327 327 330 330 331 330 330 330 326 320 315 315 314 312 309 305 304
320 321 324 323 324 326 326 328 324 325 327 331 330 328 326 325 327 329 330 330 329 326 324 324 326 326 326 326 329 328 328 328 327 328 328 328 330 330 329 328 320 314 314 313 311 308 304 304 304
319 321 320 322 319 325 328 328 326 325 328 331 331 330 327 326 326 328 330 330 330 326 327 327 327 327 326 328 329 328 327 327 327 328 328 328 328 329 329 322 314 314 312 310 306 304 305 304 302
317 319 319 318 318 323 323 323 326 325 329 332 332 330 329 327 327 326 330 330 331 329 328 329 329 328 328 328 328 326 328 328 327 327 328 326 328 328 323 314 313 311 308 304 304 305 304 302 300
319 320 320 317 318 319 322 323 323 323 325 330 332 331 330 329 327 328 328 328 328 327 328 327 328 329 328 329 329 327 326 327 327 327 326 325 326 323 315 312 310 307 303 304 304 303 302 302 300
318 318 318 319 317 318 321 324 327 325 326 328 331 331 330 330 329 329 329 328 328 327 323 324 328 329 329 329 326 327 326 327 326 326 326 325 324 316 311 309 305 303 304 304 302 301 301 300 300
315 315 317 318 320 321 320 328 329 327 326 329 331 332 331 331 331 330 329 328 329 329 325 325 326 329 329 326 326 326 325 326 326 326 325 324 317 311 308 304 303 304 303 302 302 300 300 299 298
316 315 316 317 318 319 322 326 326 327 327 328 331 331 332 332 332 331 330 329 330 329 326 326 326 328 328 325 327 327 326 327 327 325 325 320 311 306 303 303 303 303 304 303 300 299 298 297 296
316 317 317 314 317 319 321 327 326 328 326 326 330 330 331 331 332 332 330 330 330 328 327 326 326 327 325 325 329 328 328 328 326 325 324 314 306 303 302 302 307 306 305 299 298 297 297 296 295
318 318 321 321 319 322 321 325 327 325 325 325 328 330 330 331 332 333 332 331 330 328 327 327 327 326 325 328 330 330 329 327 327 325 318 307 303 303 305 308 308 306 301 297 296 297 296 295 295
318 316 318 320 324 325 319 324 326 319 323 325 327 331 330 330 331 332 332 333 332 329 328 328 328 329 330 329 330 329 329 327 324 316 306 303 302 309 310 312 308 304 297 296 296 295 295 294 294
318 321 315 318 317 321 322 318 320 322 323 322 328 331 330 328 328 329 331 332 332 331 329 329 329 330 330 330 328 327 327 321 312 306 302 306 311 311 312 310 307 296 296 297 295 295 294 293 293
318 317 322 319 323 324 325 323 324 324 326 323 329 330 324 324 325 325 327 330 329 331 330 329 329 329 328 327 327 325 320 311 307 303 309 312 312 311 311 304 297 296 296 296 295 294 293 293 292
320 320 320 320 321 325 327 322 313 312 324 325 323 319 318 319 321 323 323 326 325 327 329 327 325 325 326 325 320 316 314 303 307 311 311 312 311 310 303 299 296 296 296 295 294 293 293 292 292
313 318 319 321 322 318 320 323 313 312 321 316 314 312 313 315 317 319 321 319 319 318 323 323 322 322 321 317 315 310 309 312 310 311 311 311 307 304 300 298 296 295 295 294 294 293 292 292 291
Wind_Speed
5 9 5 4 2 3 3 6 3 3 2 2 6 6 10 4 5 4 12 23 27 27 25 21 19 21 21 19 17 15 11 9 8 9 10 11 12 13 13 13 14 14 14 13 13 13 12 11 11
8 8 5 2 3 2 5 4 7 6 4 18 13 10 4 2 5 10 24 20 25 27 25 21 21 22 22 19 17 16 12 10 9 8 9 11 12 12 12 13 14 14 13 12 11 11 11 11 11
11 10 3 2 3 5 4 4 6 5 16 4 6 4 4 7 9 23 22 23 26 27 24 21 22 22 22 19 17 16 11 11 8 8 9 11 12 13 13 13 13 12 11 10 10 10 10 10 10
8 4 2 2 7 5 6 5 4 2 9 5 8 6 4 3 17 21 26 24 26 28 24 22 21 22 22 20 18 18 15 11 6 6 9 10 12 13 13 13 12 10 9 9 9 9 9 9 8
9 4 3 3 6 3 4 7 2 2 3 3 9 6 6 15 13 22 24 25 29 26 23 23 20 22 21 21 20 19 15 7 4 5 8 11 12 12 12 11 10 9 9 9 8 8 8 8 8
4 1 2 5 6 2 5 7 2 4 1 3 3 9 8 14 15 24 24 25 26 26 24 23 21 22 21 21 21 18 12 6 4 6 10 12 13 12 11 10 9 8 8 7 7 7 7 8 8
4 3 4 4 3 3 4 4 3 3 4 5 8 5 6 19 18 24 24 24 27 27 25 24 23 22 21 20 18 15 11 7 7 10 12 13 12 11 10 9 8 7 7 6 7 7 7 7 8
7 3 5 5 7 7 4 5 7 4 2 4 15 6 7 29 28 26 26 24 27 28 26 26 25 24 22 20 18 14 10 9 10 13 13 13 11 11 9 8 6 6 6 6 6 6 6 7 7
12 5 13 11 8 3 1 2 5 4 7 7 9 6 8 33 34 31 30 27 29 29 27 27 27 25 22 20 17 14 11 12 13 15 14 13 11 9 8 7 5 5 4 4 5 8 8 8 8
9 10 19 5 12 4 4 5 11 4 5 10 6 9 12 35 38 38 36 34 34 32 29 28 29 26 23 20 17 14 13 15 16 15 13 12 10 8 7 6 5 4 4 6 7 9 10 8 11
9 14 11 12 20 13 4 9 8 7 4 12 13 12 30 40 40 38 37 36 36 32 31 30 28 26 23 21 18 16 16 17 16 14 12 10 9 8 6 5 3 3 5 6 7 8 12 11 10
12 12 20 15 16 7 8 6 4 13 11 18 16 12 37 44 43 42 39 36 32 32 33 31 28 25 22 20 18 16 17 17 15 13 11 9 8 7 5 3 2 2 3 5 7 10 13 10 9
20 12 19 25 24 16 16 14 10 13 20 10 19 24 38 40 43 42 37 32 29 32 31 32 28 24 22 20 18 17 16 16 14 13 11 10 8 6 4 3 1 2 5 8 9 11 9 7 7
10 23 24 16 23 19 19 15 15 16 23 21 27 18 45 43 45 43 39 34 32 31 31 30 28 24 22 19 17 17 17 16 14 13 12 10 8 6 4 3 3 5 9 9 10 8 6 4 4
18 16 12 18 12 9 19 17 24 26 22 19 33 36 40 42 43 45 42 37 33 32 31 30 29 26 22 17 16 17 15 16 14 13 11 9 8 6 6 6 6 7 9 9 7 5 4 4 5
11 7 14 11 12 10 14 25 19 34 24 20 25 35 38 41 44 41 40 36 32 30 32 30 28 27 22 20 18 15 17 16 15 14 11 9 8 8 8 7 7 8 7 5 4 3 2 3 4
12 4 13 9 13 7 20 14 16 29 28 23 27 33 38 36 39 40 40 38 34 31 31 30 28 26 23 20 20 19 18 17 16 14 13 11 9 9 8 6 8 7 5 4 3 3 3 4 5
12 12 5 9 5 11 15 17 7 20 29 27 27 26 32 38 43 43 41 39 33 31 30 31 30 27 26 28 23 21 21 19 16 16 14 12 10 9 8 8 7 6 5 4 4 3 5 7 6
12 11 15 8 5 5 14 13 16 21 21 21 26 29 30 37 40 40 40 36 34 34 35 34 35 31 30 29 26 24 24 21 19 17 15 13 10 9 8 7 6 5 4 4 3 4 5 5 4
12 13 10 3 6 3 9 18 20 24 12 21 27 27 35 28 34 38 39 37 35 33 37 35 38 34 32 29 28 27 24 22 20 17 15 12 11 10 8 7 6 5 3 2 3 4 4 5 4
20 17 12 4 1 9 3 11 16 22 13 24 28 39 37 37 38 41 41 38 33 31 34 36 39 35 33 32 31 29 26 23 21 18 14 13 11 9 8 8 6 3 2 3 4 4 5 5 5
14 13 8 8 3 5 10 5 15 22 20 14 23 20 31 34 37 41 41 40 35 31 31 31 37 35 35 31 30 28 25 24 20 16 15 13 12 11 10 7 4 1 2 4 6 6 6 6 6
6 20 10 4 4 1 7 5 3 22 21 15 16 33 30 35 40 43 42 39 35 32 31 30 34 35 33 31 29 28 25 25 20 18 15 15 14 12 8 6 3 0 3 5 5 5 6 6 6
14 10 6 3 2 4 10 12 7 18 33 21 15 28 32 31 32 37 40 39 36 34 31 30 32 33 33 33 34 29 29 25 23 20 20 18 14 11 8 5 2 2 5 5 5 5 8 9 9
8 6 3 3 2 5 2 10 4 11 26 23 12 23 27 30 38 39 40 37 36 35 36 33 32 32 33 35 35 33 29 26 27 23 20 15 13 11 7 3 2 7 6 4 5 8 9 10 10
10 5 4 4 1 3 2 6 3 7 22 31 21 26 27 31 37 38 38 40 39 38 38 38 34 35 36 34 34 32 29 29 24 18 15 14 13 8 4 5 7 8 4 5 7 9 9 9 8
7 4 4 6 2 3 3 2 6 7 15 14 18 22 27 32 35 38 38 37 40 40 41 39 38 37 35 32 27 24 25 22 19 18 17 14 7 4 6 12 10 5 4 7 8 9 9 8 9
3 9 5 2 3 3 3 2 1 2 11 16 14 20 24 32 35 38 40 41 41 40 37 34 33 31 29 28 27 27 23 20 20 20 14 8 1 12 20 10 6 4 6 7 8 9 9 9 9
3 3 4 3 3 2 2 1 4 8 5 16 11 18 27 32 36 37 37 38 37 36 31 27 21 24 25 27 27 25 26 27 20 14 4 15 18 12 10 7 6 7 8 8 9 9 10 10 10
4 4 3 2 3 1 1 1 7 4 5 15 16 18 21 27 32 33 33 33 32 30 31 29 28 27 28 27 24 22 25 23 12 14 17 15 10 10 9 8 9 10 9 10 11 12 12 11 10
Wind_Direction
332 313 287 263 62 68 243 254 261 258 236 276 139 154 167 114 159 202 154 167 169 165 169 168 172 169 166 166 163 164 160 132 111 106 113 118 122 117 114 111 109 102 93 87 82 77 70 66 61
321 326 287 190 117 166 255 250 250 229 151 115 102 105 111 145 150 148 151 159 173 167 167 168 170 169 169 167 167 168 160 136 113 107 112 115 119 122 117 110 102 95 91 85 80 74 69 65 63
309 315 264 158 183 196 217 224 267 268 170 144 118 82 136 161 167 159 157 156 170 170 167 167 166 170 171 171 169 170 163 151 117 106 113 121 121 117 111 104 99 96 90 84 77 72 69 65 60
303 288 223 149 225 244 206 235 316 137 200 191 144 86 110 224 158 156 154 159 171 168 167 167 166 171 174 175 170 166 154 141 117 117 127 127 119 114 112 108 100 93 86 78 74 71 66 59 52
288 246 250 222 249 256 252 280 309 283 303 176 152 164 115 143 156 157 158 161 169 169 168 168 169 169 171 171 168 165 162 145 137 132 131 126 125 119 115 106 99 92 85 78 71 64 55 44 38
247 203 188 227 242 231 283 285 249 186 229 178 112 126 142 175 176 164 162 164 176 174 171 166 168 171 170 169 170 170 173 170 172 150 136 128 123 118 112 104 98 92 85 77 67 54 42 36 27
196 154 223 218 248 253 229 255 219 201 206 212 164 129 168 181 179 171 167 169 177 180 176 166 168 170 168 168 171 176 183 187 175 155 142 134 127 123 116 108 102 99 89 74 57 44 39 27 20
211 175 213 208 220 256 244 261 244 182 252 137 187 188 180 182 177 174 169 171 182 183 183 174 171 169 170 172 177 182 186 186 169 154 147 140 135 129 121 115 109 90 74 62 51 42 27 12 7
191 220 228 210 196 186 343 293 262 192 145 169 200 249 260 178 175 172 172 176 182 184 189 184 180 176 178 180 183 187 187 178 164 157 150 146 140 135 130 121 105 91 77 48 31 12 359 354 341
204 223 226 209 225 208 287 314 294 226 182 199 221 233 215 176 176 177 177 176 180 184 190 192 188 185 184 187 190 190 186 174 166 162 156 151 147 142 137 125 104 81 43 27 7 353 346 354 339
214 238 223 211 235 240 248 295 302 233 249 223 215 201 186 176 180 184 184 184 184 187 190 189 188 188 190 191 192 189 180 174 170 166 162 161 159 155 146 133 108 44 22 357 345 333 334 327 336
243 226 231 219 224 228 249 276 271 255 233 264 235 224 187 181 185 189 188 189 190 190 189 187 186 188 187 190 189 185 177 172 170 171 169 171 167 160 160 159 96 26 334 317 315 315 326 326 325
248 239 223 228 231 229 240 250 258 279 279 247 203 211 202 194 188 192 192 190 191 190 186 185 185 185 186 186 186 180 179 176 177 180 177 174 175 180 169 163 223 293 303 310 309 313 317 320 320
269 235 244 234 225 234 238 249 254 253 278 254 205 208 206 199 193 192 193 191 191 187 183 180 181 180 179 178 183 178 177 178 178 179 182 183 186 187 191 217 253 281 297 304 308 310 314 319 320
265 237 237 226 221 221 230 247 239 244 261 215 195 195 193 199 198 198 193 193 191 189 182 182 180 179 181 172 168 175 173 174 175 176 176 180 194 207 219 236 254 290 296 298 309 310 321 330 316
228 226 213 199 197 211 183 248 236 237 234 214 195 185 192 200 201 199 196 194 192 188 188 183 182 180 179 182 181 176 181 177 184 189 184 196 208 222 228 233 278 290 291 294 284 292 306 315 319
216 227 221 186 191 180 201 245 236 229 220 205 194 193 192 201 203 201 199 197 197 193 189 188 185 184 180 185 188 191 187 187 188 193 200 212 224 237 240 265 276 274 265 256 259 275 293 328 330
213 218 185 211 197 210 227 225 266 220 206 206 194 196 193 202 206 202 201 201 202 200 195 192 188 187 185 192 197 196 193 195 193 205 215 221 237 239 251 261 262 246 231 242 254 290 326 337 340
234 216 214 185 209 207 229 247 243 255 214 191 190 194 199 206 205 204 203 203 205 208 202 199 193 191 193 193 197 193 197 199 206 211 220 235 233 237 244 248 241 228 225 239 281 323 326 329 5
185 192 190 252 207 190 253 244 233 231 241 207 186 185 205 196 200 202 202 204 207 209 209 204 197 196 198 204 207 198 202 203 212 220 231 236 233 233 232 222 220 221 225 282 312 306 315 330 344
210 215 212 201 305 224 298 278 230 221 234 233 201 197 195 191 195 200 201 203 201 203 200 201 197 198 200 209 205 200 203 208 215 220 236 232 231 227 217 209 207 217 283 309 324 343 345 335 330
169 193 174 180 182 222 152 280 212 204 215 236 202 189 194 192 194 199 200 200 199 201 197 197 197 199 204 209 203 211 211 217 221 228 235 228 219 213 205 198 202 238 326 347 343 338 336 334 325
183 171 152 151 199 337 204 238 264 192 202 225 191 198 198 190 190 195 198 198 198 197 194 194 196 202 208 207 207 211 219 222 222 231 232 219 208 195 188 187 187 34 338 329 324 334 339 342 347
128 113 138 122 153 233 197 197 209 194 201 216 199 186 188 183 178 185 192 196 195 196 193 194 198 203 209 206 207 216 223 222 224 230 220 208 195 182 176 172 207 303 316 320 325 354 353 354 352
154 147 171 166 152 246 198 186 287 233 189 203 194 192 185 178 183 188 190 190 193 194 194 194 198 202 205 212 214 218 218 223 225 215 206 190 180 176 175 203 299 309 312 315 352 358 354 352 351
154 172 156 140 211 311 317 204 237 307 196 182 188 184 180 179 188 188 189 194 194 193 198 196 198 205 206 211 216 214 217 221 205 197 172 173 175 184 173 292 312 308 298 338 348 351 347 342 345
164 151 170 80 236 255 226 266 277 304 170 140 141 160 168 175 185 189 191 195 190 196 197 201 201 205 206 207 204 217 210 198 176 166 168 165 181 226 292 310 286 252 308 336 333 332 334 338 342
173 164 103 116 242 238 210 128 274 40 156 150 155 165 152 165 178 182 183 184 184 189 195 189 195 195 197 200 212 198 191 173 168 157 159 182 289 288 283 258 247 278 297 313 312 316 324 329 329
128 117 95 158 220 269 170 55 233 296 150 159 133 139 154 164 179 181 183 183 180 179 186 194 195 199 203 198 189 181 173 156 154 167 183 254 260 260 248 248 259 271 285 297 299 305 312 311 311
13 58 82 153 266 183 255 62 335 265 113 112 115 134 148 166 178 183 182 181 180 180 183 189 192 196 195 188 178 165 152 142 160 237 256 249 235 244 246 256 257 262 275 284 292 296 299 297 295